Temperature
12 12 12 12 12 13 13 13 14 14 14 14 14 14 14 14 14 15 14 14 14 14 14 15 15 15 15 15 15 15 15 15 15 15 15 15 15 14 14 14 14 14 14
11 12 12 12 12 13 13 13 13 13 14 14 14 14 14 14 14 14 14 14 14 14 14 14 14 14 15 14 14 14 15 15 15 14 14 14 14 14 14 14 14 14 14
11 11 12 12 12 12 12 13 13 13 13 13 14 14 14 14 14 14 14 14 14 14 14 14 14 14 14 14 14 14 14 14 14 14 14 14 14 14 14 14 14 14 14
11 11 11 11 12 12 12 12 13 13 13 13 13 13 13 13 14 14 14 14 14 14 14 14 14 14 14 14 14 14 14 14 14 14 14 14 14 14 14 14 14 13 13
11 11 11 11 11 12 12 12 12 12 12 13 13 13 13 13 13 13 13 13 14 14 14 14 14 14 14 14 14 14 14 14 14 13 13 13 13 13 13 13 13 13 13
10 10 11 11 11 11 11 12 12 12 12 12 12 12 13 13 13 13 13 13 13 13 13 13 14 14 14 14 14 14 14 13 13 13 13 13 13 13 13 13 13 13 13
10 10 10 10 11 11 11 11 11 11 12 12 12 12 12 12 12 12 12 12 13 13 13 13 13 13 13 13 13 13 13 13 13 13 13 13 13 13 12 12 13 13 13
10 10 10 10 10 10 11 11 11 11 11 11 11 12 12 12 12 12 12 12 12 12 13 13 13 13 13 13 13 13 13 13 13 13 12 12 12 12 12 12 12 12 12
9 9 9 9 10 10 10 10 10 10 10 11 11 11 11 11 12 12 12 12 12 12 12 12 12 12 13 13 13 13 13 13 13 12 12 12 12 12 12 12 12 12 12
9 9 9 9 9 9 9 10 10 10 10 10 10 11 11 11 11 11 12 12 12 12 12 12 12 12 12 12 12 12 12 12 12 12 12 12 12 11 11 11 12 12 12
8 8 8 8 9 9 9 9 9 9 9 10 10 10 11 11 11 11 11 11 11 12 12 12 12 12 12 12 12 12 12 12 12 12 12 11 11 11 11 11 11 11 11
8 8 8 8 8 8 8 9 9 9 9 9 10 10 10 10 11 11 11 11 11 11 11 12 12 12 12 12 12 11 12 12 11 11 11 11 11 11 11 11 11 11 11
7 7 7 7 8 8 8 8 8 8 8 9 9 9 10 10 10 10 10 10 10 11 11 11 11 11 11 11 11 11 11 11 11 11 11 11 11 11 11 11 11 11 11
7 7 7 7 7 7 7 8 8 8 8 8 8 8 9 9 9 9 10 10 10 10 10 10 10 11 11 11 11 11 11 11 11 11 11 11 10 10 10 11 11 11 11
7 7 6 7 7 7 7 7 7 7 7 7 8 8 8 8 9 9 9 9 9 10 10 10 10 10 10 10 10 10 10 10 10 10 10 10 10 10 10 10 10 10 10
6 6 6 6 6 6 6 6 6 6 7 7 7 7 7 8 8 8 8 9 9 9 9 9 9 9 10 10 10 10 10 10 10 10 10 10 10 10 10 10 10 10 10
6 5 5 5 5 5 5 6 6 6 6 6 6 7 7 7 7 8 8 8 8 8 9 9 9 9 9 9 9 9 9 9 9 9 9 10 10 10 10 10 10 10 10
5 5 5 5 5 5 5 5 5 5 5 6 6 6 6 6 7 7 7 7 8 8 8 8 8 9 9 9 9 9 9 9 9 9 9 9 9 9 9 9 9 9 9
5 4 4 4 4 4 4 4 4 5 5 5 5 5 5 6 6 6 7 7 7 7 7 8 8 8 8 8 8 8 8 8 8 9 9 9 9 9 9 9 9 9 9
4 4 4 3 3 3 3 3 3 4 4 4 4 5 5 5 5 5 6 6 6 7 7 7 7 7 8 8 8 8 8 8 8 8 8 8 8 8 8 8 8 8 8
3 3 3 3 3 3 3 3 3 3 3 4 4 4 4 4 4 5 5 5 6 6 6 7 7 7 7 7 7 7 7 7 8 8 8 8 8 8 8 8 8 8 8
3 3 3 2 2 2 2 2 2 2 2 3 3 3 3 4 4 4 4 5 5 5 6 6 6 6 6 7 7 6 6 7 7 7 7 7 7 7 7 7 7 7 7
2 2 2 2 2 2 2 1 2 2 2 2 2 3 3 3 3 4 4 4 5 5 5 5 6 5 6 6 6 6 6 6 6 6 7 7 7 7 7 7 7 7 7
1 1 2 2 2 1 1 1 1 1 1 2 2 2 2 3 3 3 3 4 4 4 4 5 5 5 5 5 5 6 6 5 5 5 6 6 6 6 6 6 6 7 7
1 1 1 1 1 1 1 0 0 1 1 1 1 2 2 2 2 3 3 3 3 4 4 4 4 4 4 5 5 5 5 5 5 5 5 5 6 6 6 6 6 6 6
0 0 0 0 1 0 0 0 -0 0 0 0 1 1 1 2 2 2 2 2 3 3 3 3 4 4 4 4 4 5 5 5 5 5 5 5 5 5 5 5 6 6 6
Wind_Speed
3 5 4 4 6 7 8 9 10 11 10 10 10 11 10 9 9 9 9 9 9 10 10 11 12 13 14 14 15 15 16 16 17 16 17 17 17 17 17 17 16 15 17
2 4 3 4 6 7 8 9 10 11 11 11 10 10 10 9 8 8 8 8 9 10 10 11 11 12 13 14 15 15 16 16 16 16 16 16 16 17 17 17 16 15 17
3 4 4 5 7 8 8 9 10 10 10 11 10 10 9 9 8 8 8 8 9 9 10 11 11 12 13 14 15 15 15 15 16 16 15 13 14 15 16 16 16 16 16
4 4 4 7 8 8 8 8 9 9 10 10 10 10 9 9 8 8 8 8 8 9 9 10 11 12 13 14 14 14 14 15 15 14 12 11 11 14 15 15 16 16 16
5 5 5 7 8 8 8 9 8 8 9 9 9 10 10 9 9 8 8 8 8 8 9 9 11 12 13 13 13 13 14 14 14 12 12 11 11 13 14 14 15 15 15
5 6 5 7 8 8 8 8 9 9 8 8 9 9 9 9 9 8 8 7 8 8 8 9 10 11 12 12 13 13 13 13 12 12 11 10 10 12 13 14 14 14 15
4 6 6 6 7 8 8 8 8 8 8 8 8 8 8 8 9 9 8 7 7 7 8 8 9 11 11 11 12 12 13 12 12 10 9 9 10 12 12 13 13 13 14
4 5 7 7 7 7 8 8 8 8 8 8 8 8 8 8 8 8 9 8 6 6 7 7 9 10 11 11 12 12 12 11 10 9 9 8 10 11 12 12 12 13 13
5 6 7 7 6 7 7 7 8 8 8 8 8 8 8 8 7 7 8 8 7 6 6 6 8 9 10 10 11 12 11 10 9 8 7 7 9 11 11 11 11 12 12
6 6 7 7 7 7 6 7 8 8 8 8 8 9 8 8 8 7 7 7 7 6 6 6 7 9 10 10 11 11 11 10 9 7 7 7 8 9 10 10 11 11 11
4 5 6 7 8 7 6 6 7 8 8 8 8 8 8 7 7 7 7 7 7 6 5 6 7 8 9 10 11 11 10 8 7 6 6 7 8 9 10 10 10 10 10
2 3 4 5 6 7 6 6 7 6 7 7 7 7 7 6 6 6 7 7 7 7 5 6 6 8 9 8 9 9 8 7 6 6 5 6 7 8 9 9 9 9 9
1 1 3 4 5 6 5 5 6 5 6 5 6 6 5 5 5 6 6 6 6 6 5 5 6 6 7 8 7 7 7 7 5 5 5 6 6 7 8 9 9 9 9
1 1 1 3 4 5 5 4 4 4 5 4 4 4 4 4 4 4 4 4 5 5 5 5 5 6 7 7 7 7 6 6 5 4 4 5 5 6 7 8 8 8 9
2 1 1 2 3 4 4 4 4 3 3 3 3 3 3 3 2 3 3 4 4 4 4 4 4 4 5 6 6 6 5 5 5 5 4 4 4 5 7 8 8 8 8
3 2 1 1 2 3 3 3 3 2 2 2 2 2 2 3 2 2 2 3 3 3 3 3 3 3 3 4 4 4 4 5 5 5 4 4 5 5 6 7 8 8 8
3 2 1 1 2 2 2 2 2 2 2 2 2 2 2 2 2 2 1 2 2 2 2 4 4 4 3 3 3 3 4 4 5 5 4 4 4 4 5 6 7 7 7
2 2 1 0 1 1 1 1 1 2 2 1 1 1 1 1 1 2 1 1 2 2 3 3 2 2 2 2 2 2 3 3 4 4 4 4 4 4 4 5 6 6 6
2 2 1 1 1 0 1 1 1 1 1 1 1 1 1 1 1 2 1 1 2 2 2 2 2 2 3 2 2 2 2 3 3 4 4 4 4 4 4 4 5 5 5
2 2 2 1 1 0 1 1 1 1 2 1 1 0 0 1 0 1 1 1 2 2 1 2 2 1 3 3 3 2 1 2 2 3 3 3 4 4 4 5 5 4 4
1 2 2 1 1 1 0 1 1 2 2 2 1 1 1 1 1 1 1 1 1 1 2 2 2 2 2 3 3 2 1 2 2 2 2 3 3 3 4 4 4 4 3
1 2 1 1 2 2 2 1 1 2 2 2 2 1 1 1 1 1 1 1 1 1 2 2 3 2 1 2 3 4 1 0 0 1 1 2 2 3 3 4 4 4 3
1 2 2 2 2 2 2 1 1 1 1 2 2 2 2 2 2 2 2 2 2 2 3 3 3 3 3 2 2 3 3 3 1 0 1 2 2 2 2 3 3 3 3
2 2 2 3 2 2 2 2 2 3 3 4 3 3 3 3 3 3 2 2 2 2 3 4 4 3 4 4 1 0 1 3 3 1 1 1 1 2 2 2 2 3 3
2 2 2 3 3 2 3 3 4 4 4 3 3 3 3 3 3 3 3 3 3 2 3 4 4 4 3 4 3 2 1 1 1 3 2 2 2 2 2 2 2 2 3
2 2 2 3 3 3 3 4 5 5 4 4 4 4 3 3 3 3 3 4 3 3 4 5 5 5 4 4 3 3 3 3 3 3 3 3 3 2 2 2 3 2 3
Wind_Direction
311 314 330 25 49 52 54 56 54 54 56 58 59 58 66 74 75 81 82 85 90 93 96 95 97 98 98 97 96 93 91 90 90 89 87 87 88 88 86 84 83 81 85
309 329 357 47 56 57 59 58 56 55 55 55 57 57 57 67 74 79 81 83 89 92 93 94 97 100 100 100 98 94 92 92 92 89 86 85 87 88 88 86 85 86 85
3 2 18 51 58 59 63 61 57 56 56 54 53 54 55 60 68 78 83 85 89 91 90 91 95 100 101 100 97 96 95 95 95 91 86 84 89 91 90 88 86 86 86
17 23 26 55 57 57 60 61 59 57 58 54 51 49 51 55 61 70 80 85 88 89 90 92 95 98 102 100 98 98 97 98 96 91 83 82 89 93 92 91 88 87 87
28 32 37 58 56 55 57 56 56 57 59 56 51 48 47 49 53 61 70 82 85 87 92 95 97 97 102 103 102 100 98 100 95 89 83 83 88 96 95 95 92 90 88
30 30 43 64 59 55 55 54 54 56 56 57 54 50 46 45 47 52 59 76 86 86 90 96 100 102 102 104 105 102 100 99 95 89 85 86 91 99 99 98 95 92 91
34 30 40 64 63 58 55 52 52 53 53 53 54 50 46 43 42 44 49 63 82 87 88 100 103 105 106 106 105 104 102 99 95 91 90 93 99 103 103 102 100 97 94
49 38 38 52 61 60 58 53 51 50 50 50 51 48 44 41 40 40 44 52 71 86 87 101 107 107 108 107 106 103 101 101 96 93 93 98 104 107 106 104 103 101 98
51 43 36 41 53 55 55 55 51 49 48 46 44 45 43 39 40 41 41 46 56 77 87 102 112 110 109 110 108 104 101 99 94 95 99 104 110 111 108 107 106 104 101
45 37 31 36 41 47 51 56 51 47 46 44 39 37 38 37 35 40 42 45 48 63 83 102 109 114 113 110 108 106 103 98 90 92 99 112 116 116 114 110 108 108 105
42 30 32 37 36 39 48 51 49 45 43 42 37 32 33 35 34 35 41 42 44 53 77 94 107 114 112 107 105 103 100 94 93 92 103 118 121 122 119 117 113 111 108
34 23 28 37 40 40 43 46 45 41 39 38 36 32 32 35 36 36 40 41 40 44 65 84 106 111 106 100 100 98 93 94 92 93 105 120 125 126 122 121 118 118 115
144 40 32 40 48 48 44 43 42 41 40 35 32 32 33 35 39 42 43 41 39 40 60 76 92 96 100 99 96 91 89 91 87 88 103 113 124 130 130 127 125 122 120
129 53 41 48 54 53 50 44 47 42 41 34 24 27 38 41 39 39 46 42 47 49 64 77 83 90 97 102 101 94 88 86 85 84 99 106 122 135 136 134 132 129 127
162 155 90 49 58 54 55 46 43 45 40 28 27 24 37 51 41 41 48 50 44 51 68 77 85 92 96 98 100 100 93 88 89 88 91 99 112 134 139 141 138 131 128
186 185 145 64 64 62 48 39 36 46 45 39 30 26 37 50 60 60 57 50 44 49 64 86 101 103 107 107 105 101 101 98 97 95 92 94 102 121 131 135 138 134 130
189 178 154 107 58 61 49 35 36 32 47 49 31 32 41 43 69 84 78 52 38 50 79 84 93 99 105 102 112 104 102 101 100 101 100 100 105 112 121 126 128 129 129
169 163 176 5 33 41 38 37 38 26 39 43 40 43 38 36 56 81 89 63 41 72 96 100 105 118 118 119 126 114 100 101 103 105 103 103 110 112 121 125 122 123 121
175 170 178 167 169 7 26 42 42 32 19 17 41 49 38 48 53 82 100 77 77 84 104 124 116 140 143 139 144 128 111 107 110 109 103 106 115 119 123 135 127 123 121
175 172 181 186 192 355 27 31 16 4 354 353 359 67 94 79 76 88 107 81 102 116 136 133 137 133 153 154 139 116 110 114 113 110 115 112 117 123 127 128 124 127 128
162 170 186 179 210 194 278 290 303 294 304 301 299 264 198 165 174 131 144 124 130 171 180 155 146 135 149 143 124 112 65 76 106 112 104 113 110 118 126 128 126 128 133
203 208 211 214 225 229 246 257 253 260 268 277 276 275 227 198 200 195 165 170 167 176 177 161 142 158 166 140 141 146 136 113 58 136 133 138 130 113 109 121 122 129 137
252 229 243 248 252 251 258 274 309 304 294 289 282 277 259 222 204 202 193 177 184 185 194 184 167 166 178 176 151 151 159 191 186 217 167 152 143 145 123 124 130 144 155
264 265 257 253 256 255 241 229 234 242 250 256 258 258 262 230 208 201 199 191 194 188 197 193 180 182 174 179 188 169 156 150 160 179 224 198 176 176 173 141 153 165 174
287 282 278 269 268 254 237 234 238 245 247 254 257 243 247 235 217 205 203 197 204 197 200 189 186 189 191 186 181 175 135 119 133 164 201 208 216 217 208 193 177 178 187
304 299 295 274 275 266 247 239 236 236 238 244 250 237 242 238 223 213 211 205 210 207 205 197 190 192 197 197 188 180 173 171 176 170 189 196 211 228 233 209 189 182 189
Height
1521 1522 1523 1523 1524 1525 1526 1526 1527 1528 1528 1529 1529 1530 1530 1531 1532 1533 1533 1534 1535 1535 1536 1536 1537 1537 1538 1539 1539 1540 1541 1541 1542 1542 1543 1543 1544 1544 1544 1545 1545 1546 1546
1521 1522 1523 1523 1524 1525 1525 1526 1527 1528 1528 1529 1529 1530 1530 1531 1532 1533 1534 1534 1535 1535 1536 1537 1537 1538 1539 1540 1540 1541 1542 1543 1543 1544 1544 1545 1545 1546 1546 1546 1547 1547 1548
1520 1521 1522 1523 1524 1524 1525 1526 1526 1527 1528 1528 1529 1530 1530 1531 1532 1533 1534 1534 1535 1536 1537 1537 1538 1539 1540 1540 1541 1542 1543 1544 1544 1545 1546 1546 1547 1547 1548 1548 1548 1549 1549
1520 1521 1522 1523 1523 1524 1524 1525 1526 1526 1527 1528 1529 1529 1530 1531 1532 1532 1533 1534 1535 1536 1537 1538 1538 1539 1540 1541 1542 1543 1544 1545 1545 1546 1547 1547 1548 1549 1549 1549 1550 1550 1551
1520 1520 1521 1522 1523 1523 1524 1524 1525 1526 1526 1527 1528 1529 1530 1530 1531 1532 1533 1534 1535 1536 1537 1538 1539 1539 1540 1541 1543 1544 1544 1545 1546 1547 1547 1548 1549 1550 1550 1551 1551 1551 1552
1519 1520 1521 1522 1522 1523 1523 1523 1524 1524 1525 1526 1527 1528 1529 1530 1531 1531 1532 1533 1534 1536 1536 1537 1538 1539 1540 1542 1543 1544 1545 1546 1547 1547 1548 1549 1550 1550 1551 1552 1552 1552 1553
1519 1519 1520 1521 1521 1522 1522 1523 1523 1523 1524 1525 1526 1527 1528 1529 1530 1531 1531 1533 1534 1535 1536 1537 1538 1539 1540 1541 1543 1544 1545 1546 1547 1548 1549 1550 1550 1551 1552 1552 1553 1554 1554
1518 1519 1519 1520 1520 1521 1521 1521 1522 1522 1523 1524 1524 1525 1527 1528 1529 1530 1531 1532 1533 1534 1535 1536 1537 1539 1540 1541 1542 1544 1545 1546 1547 1548 1549 1550 1551 1552 1552 1553 1554 1554 1555
1517 1518 1518 1519 1519 1520 1520 1520 1521 1521 1522 1522 1523 1524 1525 1526 1528 1529 1530 1531 1532 1533 1534 1535 1536 1538 1539 1541 1542 1543 1544 1546 1547 1548 1549 1550 1551 1552 1553 1553 1554 1555 1556
1516 1516 1517 1517 1518 1518 1518 1519 1519 1520 1520 1521 1521 1522 1523 1525 1526 1527 1528 1529 1530 1531 1533 1534 1535 1537 1538 1540 1541 1543 1544 1545 1546 1548 1549 1550 1551 1552 1553 1554 1554 1555 1556
1514 1515 1515 1515 1516 1517 1517 1517 1518 1518 1519 1519 1520 1520 1521 1523 1524 1525 1527 1528 1529 1530 1531 1532 1534 1536 1537 1539 1540 1542 1543 1544 1546 1547 1548 1550 1551 1552 1553 1554 1554 1555 1556
1512 1513 1513 1514 1514 1515 1515 1515 1516 1516 1517 1517 1518 1519 1520 1521 1522 1523 1525 1526 1527 1528 1530 1531 1533 1534 1536 1537 1539 1541 1542 1543 1545 1546 1548 1549 1551 1552 1552 1553 1554 1555 1556
1510 1511 1511 1512 1512 1512 1513 1513 1514 1515 1515 1516 1516 1517 1518 1519 1520 1521 1523 1524 1525 1527 1528 1530 1531 1533 1534 1536 1537 1539 1541 1542 1544 1545 1547 1548 1550 1551 1552 1553 1553 1554 1556
1508 1509 1509 1510 1510 1510 1511 1511 1512 1512 1513 1514 1514 1515 1516 1516 1517 1519 1520 1522 1523 1525 1526 1528 1529 1531 1533 1534 1536 1537 1539 1541 1542 1544 1546 1547 1548 1550 1551 1552 1553 1554 1555
1506 1506 1507 1507 1507 1508 1508 1509 1509 1510 1511 1511 1512 1513 1513 1514 1515 1516 1518 1519 1521 1522 1524 1526 1527 1529 1531 1532 1534 1535 1537 1539 1541 1543 1544 1546 1547 1549 1550 1551 1552 1553 1554
1503 1504 1504 1505 1505 1505 1505 1506 1506 1507 1508 1509 1509 1510 1511 1512 1513 1514 1515 1516 1518 1520 1522 1523 1525 1526 1528 1530 1531 1533 1535 1537 1539 1541 1543 1544 1546 1547 1549 1550 1551 1552 1553
1500 1501 1501 1502 1502 1502 1502 1503 1503 1504 1505 1506 1507 1507 1508 1509 1510 1511 1512 1514 1515 1517 1519 1520 1522 1524 1526 1527 1529 1531 1533 1535 1537 1539 1541 1542 1544 1545 1547 1548 1549 1550 1552
1497 1498 1498 1499 1499 1499 1499 1500 1500 1501 1502 1503 1503 1504 1505 1506 1507 1508 1509 1511 1513 1514 1516 1517 1519 1521 1523 1525 1527 1529 1530 1532 1535 1537 1539 1540 1542 1544 1545 1547 1548 1549 1551
1494 1495 1495 1495 1495 1496 1496 1496 1497 1498 1498 1499 1500 1501 1502 1503 1504 1505 1507 1508 1510 1511 1513 1514 1517 1519 1520 1522 1524 1526 1528 1529 1532 1534 1536 1538 1540 1542 1543 1545 1546 1548 1549
1491 1492 1492 1492 1492 1493 1493 1493 1493 1494 1494 1495 1496 1497 1498 1499 1501 1502 1504 1505 1507 1508 1510 1511 1513 1515 1517 1519 1521 1523 1526 1527 1530 1531 1533 1536 1537 1539 1541 1543 1544 1546 1547
1487 1488 1488 1489 1489 1489 1489 1488 1489 1489 1490 1491 1492 1493 1494 1496 1498 1499 1500 1502 1503 1505 1506 1508 1510 1512 1514 1516 1518 1520 1523 1525 1527 1529 1531 1533 1535 1537 1539 1540 1541 1543 1545
1483 1484 1484 1485 1485 1485 1485 1485 1486 1486 1486 1487 1488 1489 1491 1492 1494 1495 1497 1498 1500 1501 1503 1505 1506 1508 1510 1512 1514 1516 1519 1523 1524 1526 1528 1530 1532 1534 1536 1537 1539 1540 1542
1479 1480 1481 1481 1481 1481 1482 1482 1482 1483 1483 1483 1484 1485 1487 1488 1490 1492 1493 1495 1496 1498 1500 1501 1503 1504 1506 1509 1511 1513 1515 1517 1520 1522 1524 1526 1529 1531 1533 1534 1536 1537 1539
1476 1477 1477 1478 1478 1478 1478 1478 1478 1478 1478 1479 1480 1481 1483 1484 1486 1488 1489 1491 1492 1494 1496 1498 1499 1502 1503 1505 1507 1509 1512 1513 1516 1518 1521 1523 1525 1527 1529 1531 1532 1534 1535
1473 1474 1474 1474 1474 1474 1474 1474 1474 1474 1475 1475 1476 1478 1479 1480 1482 1484 1485 1487 1489 1490 1492 1494 1496 1498 1500 1501 1503 1505 1507 1510 1512 1514 1516 1519 1521 1524 1525 1527 1529 1530 1532
1471 1470 1470 1470 1470 1470 1470 1470 1470 1470 1471 1471 1472 1473 1474 1476 1477 1479 1481 1483 1485 1486 1488 1490 1492 1494 1496 1498 1500 1501 1503 1506 1508 1510 1512 1514 1516 1519 1521 1523 1524 1526 1528